Location: *
(51.2167°N, 10.0667°E)
Time: 16:20:39
(UTC+00:00)

Cosmos 2333 Rocket - Pass Details

Date: 12 December 2019
Orbit: 837 x 864 km, 70.8° (Epoch: 27 January)

Event Time Altitude Azimuth Distance (km) Brightness Sun altitude
Rises 17:06:24 0° 239° (WSW) 3,423 6.9 -16.7°
Reaches altitude 10° 17:09:04 10° 249° (WSW) 2,494 6.0 -17.1°
Maximum altitude 17:14:18 35° 314° (NW) 1,359 3.5 -17.9°
Enters shadow 17:19:21 11° 19° (NNE) 2,433 4.3 -18.7°
